Theta_e
332 338 339 342 345 340 342 332 325 325 323 318 317 317 316 316 322 329 319 319 316 313 315 317 318 319 317 317 317 316 317 318 315 315 315 316 317 317 315 315 315 316 315 315 314 315 315 315 315
336 337 336 339 342 339 336 325 322 320 318 315 315 314 314 318 316 318 319 315 311 315 314 317 318 317 317 316 315 316 315 315 314 315 315 315 317 315 314 315 315 315 315 314 314 313 313 314 313
336 338 330 343 336 336 333 323 319 318 316 317 316 312 314 317 316 318 317 311 313 316 315 318 317 316 316 315 316 315 315 314 314 314 314 315 315 314 313 314 314 314 314 313 313 312 312 312 312
334 332 329 333 336 328 326 320 318 317 316 316 311 312 311 313 316 316 313 310 310 314 314 317 316 316 315 315 315 314 313 313 313 313 313 314 314 313 313 313 313 312 313 313 312 311 311 311 311
331 329 334 337 331 325 321 320 316 317 316 317 314 313 311 314 316 314 311 309 313 316 314 315 315 315 314 314 314 313 313 312 311 310 312 313 312 312 312 312 311 311 311 311 310 309 309 309 309
329 328 331 333 329 324 321 320 318 317 315 316 313 311 311 313 312 311 309 310 315 314 314 314 314 314 313 314 314 312 312 310 309 308 311 312 311 311 311 310 310 310 310 309 309 308 307 307 307
332 331 333 329 327 324 321 317 319 317 315 316 312 312 308 311 311 309 308 310 311 315 314 311 310 311 312 313 313 310 309 308 305 304 307 307 308 308 307 309 308 308 308 308 307 306 306 305 306
326 325 327 325 327 326 321 319 319 316 315 315 313 310 308 309 309 308 307 308 309 310 310 310 310 307 308 311 311 309 305 303 301 301 302 304 305 306 304 300 306 306 306 306 305 305 305 305 305
324 330 328 327 328 325 320 320 317 314 314 314 310 310 311 311 309 307 307 307 307 307 308 309 306 305 308 309 309 308 303 302 301 301 302 303 303 301 301 302 302 304 304 305 305 305 303 301 301
321 327 326 322 322 323 322 320 316 316 314 312 309 309 310 310 308 306 306 305 305 305 306 305 303 304 308 309 304 303 302 301 301 301 301 301 302 302 301 302 303 303 303 303 303 303 302 300 300
320 323 322 321 320 318 320 319 316 315 315 312 309 308 308 308 307 306 305 305 304 304 304 303 303 303 304 304 303 303 302 302 302 301 300 301 301 301 301 301 301 301 301 301 301 300 300 300 300
319 317 318 318 317 317 317 317 317 315 315 313 308 309 308 306 306 306 305 305 305 305 305 304 303 304 304 304 303 303 302 302 302 302 299 301 301 301 301 301 301 301 300 300 300 300 301 301 301
317 317 316 316 316 316 315 315 315 315 313 310 309 309 307 306 306 307 307 306 305 305 305 304 303 303 304 304 304 303 302 302 302 302 300 300 301 301 301 301 300 301 300 299 300 300 301 301 301
316 316 315 315 315 316 315 315 314 314 310 309 308 307 306 306 307 308 307 307 306 306 306 305 304 303 303 304 304 303 302 302 302 302 301 300 300 300 300 301 300 301 300 300 300 301 301 301 301
316 316 315 314 314 315 313 313 313 312 309 309 307 305 305 307 309 308 309 308 306 306 306 306 305 303 303 304 304 303 302 302 302 301 301 301 299 300 300 300 300 301 299 299 300 300 300 301 301
316 316 317 316 314 314 312 310 316 310 309 308 307 305 305 306 309 310 310 309 306 306 306 305 305 305 302 303 303 303 303 301 301 301 301 301 300 299 300 300 300 301 299 300 300 300 300 300 301
316 315 315 318 314 314 313 312 314 309 310 309 305 305 305 305 307 310 310 309 307 306 305 305 305 305 304 303 303 303 303 302 301 300 301 301 301 300 299 300 300 300 299 300 300 300 300 300 301
314 312 312 313 315 314 313 311 310 310 309 309 307 304 304 305 305 310 310 309 308 306 305 305 305 304 304 303 303 303 303 302 302 301 301 301 301 301 300 299 300 300 300 300 300 300 299 300 301
315 314 312 314 313 312 310 310 310 310 309 307 306 305 304 305 308 311 310 309 308 306 305 305 305 304 304 303 303 303 303 303 302 301 301 301 301 301 300 300 299 300 300 299 300 300 300 299 300
315 315 313 312 313 312 310 310 310 311 310 308 307 306 305 305 304 308 310 309 308 307 306 305 305 304 304 304 303 303 303 302 302 302 301 301 301 301 301 300 299 300 300 300 300 300 300 300 300
313 313 312 312 312 312 312 313 314 313 312 311 310 308 307 305 304 304 307 308 308 307 306 305 305 304 304 304 303 303 303 303 302 302 302 302 301 301 301 300 300 299 300 300 300 300 300 300 299
313 313 313 314 312 312 312 311 313 314 314 312 311 308 308 307 305 305 306 307 308 308 307 306 305 305 304 304 304 303 303 303 303 302 302 302 302 301 301 300 300 300 300 300 300 300 300 300 300
312 311 312 313 314 314 317 314 314 313 314 313 310 308 307 307 306 304 306 308 309 309 308 307 306 305 305 304 304 303 303 303 303 303 303 303 302 302 301 300 300 300 299 300 300 300 300 300 300
311 312 312 313 314 321 317 311 310 314 314 313 312 310 308 308 307 307 309 309 309 309 308 308 306 306 305 305 305 304 304 303 303 303 302 302 302 302 301 301 300 300 300 299 300 300 300 300 300
312 313 321 324 321 321 315 312 312 315 314 312 312 309 310 308 307 306 307 308 309 309 309 308 307 306 306 305 305 305 304 304 304 303 303 302 302 302 302 302 301 300 300 299 300 300 300 300 300
311 313 316 320 317 315 314 314 318 314 312 312 312 312 310 310 307 307 308 310 310 310 310 309 308 308 307 306 305 305 305 304 304 304 303 303 303 302 302 302 302 301 300 300 300 300 300 300 300
314 313 312 315 316 318 318 317 316 313 313 314 314 312 311 310 309 309 311 312 312 312 312 312 311 310 309 308 306 306 305 305 304 304 304 304 303 303 303 303 302 301 300 300 300 300 300 300 300
311 311 317 316 321 319 318 317 316 316 313 314 314 312 310 310 310 309 311 313 314 314 314 313 313 312 312 310 309 307 306 306 305 305 304 304 304 303 304 303 303 302 301 300 300 300 299 300 299
309 311 311 312 314 318 317 318 312 313 312 313 313 312 310 309 309 309 311 313 314 314 313 313 313 312 311 311 310 309 308 307 305 305 305 305 304 304 304 304 303 302 302 301 301 300 300 300 300
308 312 311 316 319 312 313 314 313 310 311 312 312 311 309 309 309 308 311 311 312 312 311 312 312 311 310 309 309 308 308 307 306 306 305 305 305 304 304 304 304 303 302 302 301 301 300 300 300
Wind_Speed
13 10 16 2 4 4 2 4 3 5 4 1 4 7 9 4 4 3 14 19 15 14 15 14 11 10 10 10 10 10 9 11 10 10 10 11 11 13 13 13 13 14 14 15 16 16 17 17 18
14 13 3 2 4 3 3 2 9 4 4 6 8 6 6 3 4 9 13 17 14 18 16 15 11 10 11 10 10 9 8 9 9 9 9 10 11 12 11 12 13 13 14 15 16 15 16 17 18
15 9 3 3 3 1 4 0 7 3 3 2 4 6 4 4 7 17 17 21 17 18 15 14 11 11 11 11 10 9 9 9 9 9 9 9 11 10 11 12 13 12 13 13 13 14 15 16 16
7 5 4 3 4 7 7 6 7 6 3 5 5 7 4 2 20 16 21 16 14 14 10 13 12 11 11 11 9 9 9 9 8 8 9 9 10 11 11 12 12 12 12 12 12 12 13 14 15
3 3 2 4 5 3 5 8 8 6 6 2 5 5 4 6 20 27 20 17 17 15 10 14 12 11 11 10 9 9 9 9 8 8 9 9 9 11 12 12 13 13 12 12 13 14 14 15 16
3 3 3 4 5 4 4 6 6 5 5 4 6 6 4 25 25 22 20 17 15 13 11 12 11 11 10 9 8 8 8 8 7 7 8 8 9 10 10 11 12 12 13 13 14 14 13 15 16
2 3 4 5 7 4 5 7 3 5 6 1 10 4 3 14 22 21 17 18 14 12 11 7 11 10 9 8 8 7 7 7 6 7 8 8 8 9 9 9 10 11 12 13 13 14 12 13 15
3 3 4 2 4 3 3 3 2 7 1 1 3 6 5 18 24 20 18 16 17 13 8 8 6 7 9 9 7 6 5 5 9 10 10 8 6 4 8 10 8 8 10 11 12 12 12 12 13
3 4 3 5 4 3 4 3 3 2 5 2 3 4 7 33 27 22 21 18 17 15 14 11 8 7 10 6 5 6 4 5 5 6 3 2 5 5 5 9 8 9 7 9 9 10 10 11 12
4 3 1 3 2 3 4 4 7 4 4 3 5 8 27 33 30 26 24 21 19 18 16 15 12 12 11 9 4 4 3 3 3 3 4 4 3 3 6 6 8 5 7 6 6 7 7 9 9
2 3 3 3 3 4 4 3 7 6 5 7 10 12 21 29 27 25 22 23 22 19 17 16 15 14 15 11 7 4 5 3 4 2 4 7 2 2 2 3 3 5 4 5 6 6 7 8 6
4 3 3 2 2 3 0 2 3 6 5 4 14 27 22 18 23 26 24 23 24 22 19 18 18 16 14 14 9 7 7 6 7 4 4 6 5 3 1 2 2 4 4 4 5 6 6 6 6
3 3 4 5 3 2 1 3 4 5 7 9 23 20 17 19 24 27 26 26 26 26 24 22 20 19 16 16 11 13 10 9 8 7 5 6 5 4 3 1 1 1 4 3 4 6 5 5 6
0 2 5 5 5 3 2 3 1 6 8 9 16 13 13 20 27 27 26 27 29 28 27 23 21 18 18 18 15 15 12 10 11 10 7 5 6 5 4 3 2 3 4 1 2 4 4 3 5
1 1 1 4 4 2 3 5 9 7 10 11 10 10 10 20 27 29 29 28 30 31 27 25 21 20 19 18 16 16 13 13 13 12 10 9 7 7 6 5 5 5 4 1 1 2 3 1 3
2 2 1 2 6 3 3 7 5 7 9 10 10 9 10 14 27 29 29 27 28 28 28 25 22 20 20 20 19 17 16 16 16 12 12 11 11 10 10 8 7 7 5 3 3 3 4 4 5
3 3 0 3 7 2 3 6 4 7 9 9 10 10 10 9 19 29 29 29 27 27 27 26 25 22 20 20 20 20 18 17 15 16 14 13 12 12 11 10 8 8 7 5 5 6 6 6 6
3 4 5 4 3 2 4 9 8 8 8 12 10 10 10 10 14 29 28 30 28 28 27 27 27 25 22 20 19 20 18 17 17 16 17 16 16 15 13 12 11 11 10 7 7 8 7 7 8
1 3 4 2 2 4 5 8 11 9 9 9 9 9 9 12 24 30 28 29 29 27 27 30 30 29 26 25 25 25 26 22 21 20 18 19 19 18 16 15 14 13 12 10 9 9 7 8 6
2 3 4 4 2 4 7 11 9 5 5 9 10 9 10 6 8 24 28 30 32 31 29 29 33 32 31 29 29 27 25 24 24 21 21 22 21 21 20 18 17 16 15 13 12 10 9 7 3
2 2 1 3 8 4 5 6 3 3 2 4 6 8 6 10 11 11 25 33 33 33 34 34 33 33 34 32 29 29 26 27 24 27 26 24 24 24 24 22 20 18 17 17 16 13 13 10 7
2 0 2 3 4 1 3 3 4 2 2 3 3 5 9 8 7 12 22 30 36 38 37 37 36 37 35 34 35 36 35 34 34 31 28 26 25 24 25 25 23 21 20 20 18 16 15 14 12
4 0 1 1 2 2 5 4 6 3 2 3 6 6 8 8 8 10 22 34 40 38 38 38 37 38 40 37 38 38 38 37 33 30 28 30 28 27 27 27 26 26 25 24 21 19 19 19 16
1 2 2 2 2 3 3 4 5 3 4 3 2 5 8 7 7 12 25 32 35 36 37 38 38 40 40 40 40 42 43 41 37 35 34 33 32 31 30 29 29 28 27 27 25 23 22 21 22
2 3 3 3 4 4 1 3 8 4 3 5 4 6 6 6 6 7 10 17 26 31 34 36 38 41 40 42 44 44 45 45 43 41 39 37 34 34 35 31 31 31 30 28 27 26 26 26 25
1 4 4 3 0 4 4 3 4 5 5 2 1 3 4 4 4 7 11 14 17 19 23 30 35 40 41 41 43 46 46 46 46 44 42 39 37 37 34 32 32 32 31 30 29 29 30 29 29
3 3 2 4 3 3 3 4 3 2 2 2 2 3 6 6 6 8 10 12 14 16 20 25 29 36 37 39 40 42 45 45 45 45 44 41 38 38 37 35 34 34 33 33 32 34 34 32 30
0 1 2 3 2 1 5 5 4 1 4 2 2 6 8 8 8 8 14 17 19 21 23 24 27 31 31 32 35 38 40 42 45 44 43 42 40 38 38 38 37 35 35 34 34 34 34 34 34
1 0 0 4 4 4 1 6 6 6 6 4 3 3 7 9 9 9 17 24 22 21 22 22 21 22 24 27 30 34 37 37 39 42 42 41 39 38 39 38 37 37 37 36 35 36 36 35 35
1 3 4 4 3 2 4 6 5 9 8 5 3 7 8 8 8 8 15 18 19 23 23 21 19 19 19 19 22 26 31 34 35 37 39 38 38 36 37 38 38 37 39 38 38 38 38 38 39
Wind_Direction
339 325 318 326 50 54 111 37 65 62 57 42 358 83 116 46 45 146 129 134 133 129 128 123 119 110 106 100 94 85 78 69 64 61 63 60 54 52 48 44 41 43 40 36 36 36 37 34 35
338 338 20 73 77 66 358 4 82 65 132 123 78 120 50 78 81 141 129 138 130 138 130 127 124 116 111 107 103 86 80 76 76 69 66 66 58 53 51 53 51 48 45 40 35 36 35 34 33
324 311 69 114 109 158 125 27 117 119 87 97 104 63 87 116 132 148 145 139 134 138 131 128 129 124 119 114 102 91 86 83 82 74 75 72 66 61 60 55 49 49 49 47 44 40 36 36 34
323 12 6 64 118 335 128 156 139 122 44 39 115 67 53 358 153 152 146 146 157 154 154 137 135 128 125 118 109 101 94 87 85 82 83 77 70 62 60 57 52 47 46 45 47 48 48 43 40
302 62 17 76 43 105 117 160 145 150 134 86 119 143 97 77 136 144 150 149 160 153 149 140 137 134 128 121 114 105 103 95 88 86 88 81 74 67 60 56 52 50 50 46 43 44 46 43 42
3 92 42 116 114 137 108 131 104 111 135 123 78 109 164 144 142 152 154 152 157 158 151 143 142 136 132 126 120 112 106 97 87 88 94 86 79 75 66 59 56 53 51 47 43 42 44 45 47
107 81 237 123 151 129 155 139 89 148 130 54 151 95 163 163 155 157 156 160 159 158 153 148 148 146 143 137 132 121 112 100 87 86 99 90 86 74 65 62 55 54 50 46 41 39 37 41 39
94 89 312 123 170 127 144 76 23 76 235 344 106 164 187 189 162 161 160 158 161 162 164 170 146 142 156 152 141 133 121 115 96 84 78 85 87 57 37 41 59 57 51 42 37 36 38 40 37
40 52 4 4 69 135 130 101 32 142 124 62 31 135 182 161 161 164 157 159 167 175 179 181 164 173 180 172 159 153 118 109 112 88 62 8 98 358 28 35 53 51 40 37 36 37 39 40 41
82 83 60 345 61 128 151 102 161 150 137 115 66 69 139 156 164 168 169 173 175 183 183 190 191 178 177 183 211 180 144 159 128 161 137 110 83 36 34 33 42 29 30 40 34 36 42 37 37
15 145 158 27 44 56 145 158 178 158 209 195 176 155 150 160 172 178 182 186 188 189 191 191 190 198 194 198 229 195 186 196 196 210 159 149 125 115 44 29 15 26 29 33 35 43 59 42 37
100 67 60 111 49 10 284 308 181 177 223 159 159 162 160 167 180 187 193 197 195 194 195 196 196 191 198 202 217 202 206 212 209 230 186 166 171 180 166 21 30 6 11 18 30 28 51 49 24
94 163 111 136 162 236 332 273 239 241 230 114 142 160 167 177 189 196 201 204 200 196 194 198 204 206 201 202 208 200 215 215 224 227 219 192 180 184 171 274 309 321 340 10 41 22 22 23 17
79 181 168 178 202 209 186 271 55 267 141 126 151 168 177 181 191 200 207 208 200 195 197 203 209 211 202 208 207 206 217 219 211 227 231 219 208 192 207 213 255 254 307 56 14 355 349 13 357
196 307 288 213 194 195 119 277 237 218 147 161 162 175 185 194 197 202 208 208 200 199 201 207 213 213 207 210 214 221 219 217 223 234 231 235 222 220 230 233 251 274 287 292 299 303 326 314 343
270 87 154 240 147 189 111 271 262 215 150 185 185 184 196 203 204 208 208 209 201 198 201 208 212 215 212 212 217 224 228 225 231 227 231 241 235 234 232 229 245 268 283 291 310 307 320 321 321
328 278 344 311 197 119 172 275 299 179 175 188 198 205 204 208 211 210 209 207 204 203 204 207 210 216 219 221 220 228 235 232 232 226 228 240 243 246 239 230 235 259 279 271 284 298 302 315 315
312 350 326 329 259 243 240 257 267 224 190 207 203 207 206 198 208 206 206 206 206 206 209 211 211 216 221 227 225 229 236 236 235 233 227 234 242 248 247 235 231 246 263 252 264 283 295 300 309
260 291 309 274 225 257 238 268 263 252 214 216 223 216 210 201 207 202 203 203 202 203 204 210 210 213 216 217 218 222 225 232 234 239 233 234 237 242 245 241 237 239 252 256 253 278 288 306 309
328 292 305 298 195 330 289 289 280 235 224 205 206 223 215 194 194 200 199 197 200 204 210 213 215 217 220 225 228 228 231 236 244 244 239 236 237 240 245 244 241 234 240 247 248 260 268 287 276
57 92 358 266 320 278 302 328 357 360 71 143 188 217 221 195 193 198 196 199 202 206 212 216 218 221 223 227 227 226 233 237 238 237 239 236 236 237 241 245 246 239 237 240 246 248 249 261 270
303 101 6 341 34 300 72 282 318 229 326 283 241 215 216 210 193 194 195 199 206 213 218 221 224 226 227 227 222 221 222 223 233 237 243 241 239 241 240 242 244 243 241 242 246 247 247 256 253
236 193 275 278 348 21 330 70 268 118 328 263 240 247 227 220 197 195 195 204 213 219 221 226 229 230 232 228 227 227 227 234 242 240 239 236 237 242 244 243 241 240 239 241 243 244 239 243 245
338 353 57 14 61 33 275 109 290 218 206 230 260 215 232 239 221 213 209 212 218 223 226 228 230 234 234 232 231 231 233 235 233 236 236 238 240 242 242 241 242 243 242 239 240 242 244 243 244
48 57 3 21 15 213 297 46 240 266 241 171 208 246 232 214 227 223 212 211 222 226 229 232 234 237 236 233 233 235 237 238 238 239 240 241 240 239 239 237 237 239 241 242 240 241 243 244 244
276 135 146 156 316 278 326 255 284 194 179 118 215 170 214 209 231 233 232 232 234 235 237 239 240 242 241 237 236 238 239 240 239 241 243 246 245 246 246 243 243 244 243 242 240 242 244 245 247
295 68 164 105 6 50 259 284 339 165 160 149 136 217 235 252 247 233 234 234 237 238 242 244 246 248 247 245 242 241 242 241 240 242 245 247 248 246 245 246 247 246 244 241 239 240 242 245 248
212 224 95 16 127 292 297 295 230 263 201 225 215 236 249 244 238 235 229 226 234 240 246 248 249 251 255 252 248 247 247 247 246 247 247 246 248 246 245 246 246 247 245 240 239 241 243 245 247
144 238 104 120 135 154 273 270 218 190 173 179 242 291 252 254 244 232 230 231 238 241 248 245 248 251 252 254 253 249 250 249 249 249 250 249 250 249 244 246 247 247 247 244 239 239 242 243 247
236 202 146 117 204 149 142 273 247 177 194 187 293 287 287 271 272 267 263 265 267 267 271 245 246 244 252 260 258 253 251 251 251 250 250 251 251 251 248 247 245 245 245 247 245 242 241 241 243